Погода Исанбай

Погода Исанбай : погода сейчас, прогноз погоды и архив. Всё, что Вы хотите узнать о погоде Исанбай!

Поиск расширенной информации на нашем сайте:

Другие новости

Новости СМИ2

Главная страница сайта

Новости сайта

03.07.2017

Напоминаем, что на нашем специализированном сайте Метеоцентр.Азия вы можете получить высокодетализированные автоматические прогнозы погоды по пунктам России, СНГ и мира в авиационном формате (включающие направление и скорость ветра, видимость, явления погоды, количество и форму облачности, нижнюю и верхнюю границу облачности).


Погода Исанбай - сегодня

Время (UTC), дата Ветер
(°,м/с) 
Видим.   Явления Облачность Т
(°С)
Тd
(°С)
f(%) Тe
(°С)
Pmin
(гПа)
dP
(гПа)
Po
(мм)
O2
(г/м3)
Тmin Tmax R s Состояние
почвы
18 18.06.18 тихо ()   н/о    ясно 
+25.4 +2.9 23 +25  1000.7  1.2  704  259           
21 18.06.18 050 (СВ) н/о    ясно 
+23.1 +5.1 31 +23  1001.8  0.5  705  261           
00 19.06.18 050 (СВ) 20000 м    ясно 
+20.9 +4.5 34 +21  1002.1  -0.1  704  263           
03 19.06.18 250 (З) 20000 м    ясно 
+25.4 +4.8 27 +25  1002.6  1.3  705  259  +20.1         
06 19.06.18 230 (ЮЗ) 20000 м    1/1 1000 м 
[Cu hum]
+34.4 +7.4 19 +34  1000.7  705  251           
09 19.06.18 тихо ()   20000 м    3/3 1000 м 
[Cu hum]
+37.9 +4.8 13 +38  999.6  -0.3  705  249           
12 19.06.18 230 (ЮЗ) 20000 м    3/3 1000 м 
[Sc]
+36.9 +9.3 19 +38  997.9  -1.8  704  248           
15 19.06.18 250 (З) 20000 м    1/0 средняя 
[Ac trans]
+33.7 +6.4 18 +34  998.9  0.3  704  251    +38.5       
18 19.06.18 050 (СВ) н/о    ясно 
+28.4 +1.5 18 +28  1001.5  1.4  705  257           
21 19.06.18 050 (СВ) н/о    ясно 
+26.1 +3.2 23 +26  1002.5  0.5  706  259           
00 20.06.18 050 (СВ) 20000 м    1/1 1000 м 
[Sc]
+23.9 +5 29 +24  1003.4  0.4  706  261           
03 20.06.18 050 (СВ) 20000 м    3/3 1000 м 
[Sc]
+24.3 +9.3 39 +26  1006.1  2.7  708  260  +21         
06 20.06.18 360 (С) 20000 м    3/3 1000 м 
[Sc]
+33.9 +9.4 22 +35  1004.5  0.4  708  252           
09 20.06.18 340 (С) 20000 м  гроза без осадков{ливн. осадки}  8/8 1000 м кучево-дожд. 
[Cb cap]
+28.2 +13.6 41 +36  1006.1  0.4  708  256           
12 20.06.18 320 (СЗ) 20000 м  {гроза, ливн. осадки}  8/8 1000 м кучево-дожд. 
[Cb cap]
+32.4 +11.7 28 +37  1002.9  -2.2  707  252           
18 20.06.18 050 (СВ) н/о    ясно 
+26.6 +10.6 37 +30  1006.2  0.6  708  258           
21 20.06.18 050 (СВ) н/о    ясно 
+24.3 +11.9 46 +29  1007.3  0.6  709  260           
00 21.06.18 050 (СВ) 20000 м    ясно 
+19.9 +9.4 51 +22  1008.5  0.2  709  265           
03 21.06.18 230 (ЮЗ) 20000 м    ясно 
+23 +13.5 55 +31  1008.2  0.4  709  261  +16.9         
06 21.06.18 230 (ЮЗ) 20000 м    1/1 1000 м 
[Cu hum]
+31.5 +8 23 +32  1006.5  709  255           
09 21.06.18 270 (З) 20000 м    3/3 1000 м 
[Cu med, cong]
+34.6 +5.3 16 +35  1004.7  -1.1  708  252           
12 21.06.18 230 (ЮЗ) 20000 м    1/1 1000 м 
[Cu med, cong]
+35.4 +2.1 12 +35  1003.6  -1  708  252           
15 21.06.18 200 (Ю) 20000 м    1/1 1000 м 
[Sc diur, vesp]
+29.3 +8.8 28 +30  1004.3  -0.4  707  256    +36.2       
18 21.06.18 тихо ()   н/о    ясно 
+22.6 +5.8 34 +23  1006.8  0.9  708  262           
21 21.06.18 050 (СВ) н/о    ясно 
+21.9 +6.1 36 +22  1007.1  0.2  708  263           
Время (UTC), дата Ветер
(°,м/с) 
Видим.   Явления Облачность Т
(°С)
Тd
(°С)
f(%) Тe
(°С)
Pmin
(гПа)
dP
(гПа)
Po
(мм)
O2
(г/м3)
Тmin Tmax R s Состояние
почвы

Для получения пояснительной информации подведите курсор к названию столбца.

ПОГОДА Исанбай - архив

Всё, что Вы хотите узнать о погоде Исанбай - удобно и подробно!

Выберите нужную дату (начиная с 1 января 2015* года) и нажмите кнопку "Найти".
Будут отображены архивные сводки погоды по пункту Исанбай, начиная с указанной даты.


Отображать данные в формате CSV (для использования в таблицах Excel)


Внимание! Наш архив погоды предназначен исключительно для личного некоммерческого использования в познавательных целях. Если Вам необходимы официальные справки о состоянии погоды (для производственных, юридических, коммерческих и т.п. целей), обращайтесь в органы Росгидромета.

*Примечание: данная дата относится к архиву по метеостанциям СССР (Россия, СНГ, Балтия).
Архив по метеостанциям Зарубежной Европы и Азии (кроме Китая) хранится 10 дней, по другим регионам земного шара (Китай, Африка, Америка, Австралия, Океания) - 1 день.

Исанбай - район местоположения метеостанции


Название, широта, долгота, высота метеостанции:
Исанбай 38°ш. 68.4°д. 565 м над ур. моря [Таджикистан]

Дополнительная информация

В oтличие oт бoльшинства пoгoдных сайтoв мы публикуем пoдрoбную метеoинфoрмацию в детальнoм прoфессиoнальнoм фoрмате.

Характеристики температуры и влажнoсти вoздуха измеряются на высoте 2 м в тени вдали oт зданий и деревьев.
Скoрoсть ветра измеряется на высoте 10 м (на урoвне рoста челoвека скoрoсть ветра ниже в 1.5-2 раза). Если метеoстанция нахoдится в гoрoде или в лесу, тo скoрoсть ветра занижена на 2-4 м/с пo сравнению с oткрытым местoм. Скoрoсть ветра над акватoриями крупных рек и oзёр, а также на вершинах хoлмoв на 2-5 м/с выше, чем в oбычных услoвиях.
Атмoсфернoе давление в разных тoчках местнoсти мoжет значительнo oтличаться oт давления на метеoстанции, в зависимoсти oт услoвий рельефа (при пoдъёме на 10 м давление пoнижается примернo на 1 мм рт.ст.).